www.pogodaiklimat.ru

Погода и климат >> Архив погоды >> Китай >> Nanyue


ПОГОДА в Nanyue

  • Прогноз погоды в Nanyue
  • Монитор погоды в Nanyue
  • Климат города

АРХИВ ПОГОДЫ в Nanyue

Время (UTC), дата Ветер
(напр.,м/с)
 
Видим.   Явления Облачность Т
(С)
Тd
(С)
f
(%)
Тe
(С)
Тes
(С)
Комфортность P
(гПа)
Po
(гПа)
Тmin
(С)
Tmax
(С)
R
(мм)
R24
(мм)
S
(см)
03 13.07 Ю 4 11 км {туман} 6/6 300 м
[]
+23.6 +22.0 91 +30 +36 очень
душно
1007.4 1007.0
06 13.07 В 2 30 км {туман} 9/9 200 м
[]
+24.6 +21.1 81 +31 +33 очень
душно
1006.4 1006.0 +17.9
09 13.07 Ю 1 11 км 8/8 100 м
[]
+23.5 +21.8 90 +30 +31 очень
душно
1005.0 1005.0
12 13.07 ЮВ 6 7000 м слабый дождь 8/8 <50 м
[]
+21.4 +21.4 100 +27 +27 душно 1005.8 1006.0 0.7
18 13.07 Ю 10 <100 м туман ?/? +20.5 +20.5 100 +24 +24 комфорт 1005.7 1006.0 +25.6 0.1
21 13.07 Ю 14 300 м туман н/о +19.3 +19.3 100 +20 +20 1004.7 1005.0
00 14.07 Ю 11
{17}
<100 м туман ?/? +19.5 +19.5 100 +21 +21 комфорт 1006.2 1006.0 0.1
03 14.07 Ю 8 30 км {туман} 9/9 50 м
[]
+22.0 +21.0 94 +28 +29 душно 1007.3 1007.0
06 14.07 Ю 4 30 км {туман} 9/9 200 м
[]
+25.2 +21.9 82 +32 +34 очень
душно
1006.2 1006.0 +19.2
09 14.07 ЮВ 6 27 км 9/9 50 м
[]
+22.6 +21.4 93 +30 +30 очень
душно
1005.6 1006.0
12 14.07 Ю 8 21 км 4/4 <50 м
[]
+21.6 +21.4 99 +28 +28 очень
душно
1006.4 870.0
18 14.07 Ю 6 2700 м дымка ?/? +20.7 +20.7 100 +25 +25 комфорт 1006.1 1006.0 +25.2
21 14.07 Ю 9 30 км ?/? +20.4 +20.1 98 +24 +24 комфорт 1006.2 1006.0
00 15.07 Ю 4 22 км 6/6 100 м
[]
+23.0 +21.3 90 +31 +32 очень
душно
1008.0 1008.0
03 15.07 В 4 18 км 4/4 200 м
[]
+24.8 +20.7 78 +31 +39 очень
душно
1008.3 1008.0
06 15.07 штиль 0 22 км 9/9 300 м
[]
+24.0 +21.7 87 +31 +33 очень
душно
1007.6 1008.0 +20.1
09 15.07 Ю 2 27 км 3/3 300 м
[]
+24.9 +20.4 76 +31 +34 очень
душно
1006.1 1006.0
12 15.07 В 6 23 км 1/1 100 м
[]
+22.4 +20.9 91 +29 +29 очень
душно
1006.3 1006.0
18 15.07 Ю 8 30 км ?/? +21.4 +19.0 86 +26 +26 душно 1006.3 1006.0 +26.4
21 15.07 Ю 8 30 км ?/? +21.3 +18.9 86 +26 +26 душно 1006.1 1006.0
00 16.07 Ю 5 28 км 1/1
[]
+23.1 +19.9 82 +30 +32 очень
душно
1007.5 871.9
03 16.07 СВ 2 11 км 9/9 50 м
[]
+23.4 +22.4 94 +32 +34 очень
душно
1008.2 917.4
06 16.07 В 2 27 км 9/9 200 м
[]
+25.8 +21.9 79 +33 +35 очень
душно
1006.9 1007.0 +20.7
09 16.07 В 3 30 км 9/9 300 м
[]
+26.5 +20.8 71 +33 +34 очень
душно
1005.4 1005.0
12 16.07 Ю 7 10 км 9/9 100 м
[]
+22.4 +21.2 93 +29 +29 очень
душно
1006.0 1006.0
18 16.07 В 7 30 км ?/? +22.3 +14.2 60 +26 +26 жарко 1005.3 1005.0 +26.9
21 16.07 Ю 4 30 км н/о +21.1 +16.7 76 +25 +25 комфорт 1005.3 1005.0
00 17.07 Ю 3 26 км 4/4
[]
+23.8 +19.7 78 +29 +32 душно 1006.1 870.8
03 17.07 В 2 30 км 6/6 200 м
[]
+26.0 +21.0 74 +33 +40 очень
душно
1006.6 1007.0
06 17.07 В 1 25 км 9/9 200 м
[]
+25.2 +21.9 82 +32 +35 очень
душно
1005.9 1028.6 +21.0
09 17.07 В 3 н/о 3/3 300 м
[]
+25.4 +20.6 75 +32 +35 очень
душно
1005.4 1005.0
12 17.07 В 6 16 км 1/1 100 м
[]
+22.4 +20.9 91 +29 +29 очень
душно
1005.5 1006.0
18 17.07 ЮВ 6 21 км ?/? +20.6 +20.1 97 +25 +25 комфорт 1005.2 1005.0 +27.2
21 17.07 Ю 6 20 км ?/? +20.6 +20.1 97 +25 +25 комфорт 1005.5 1006.0
00 18.07 ЮЗ 4 30 км ясно +23.2 +20.0 82 +30 +34 очень
душно
1006.5 1007.0
03 18.07 В 1 19 км 9/9 200 м
[]
+24.9 +22.2 85 +32 +35 очень
душно
1006.7 1007.0
06 18.07 ЮВ 2 17 км 9/9 200 м
[]
+25.8 +21.9 79 +33 +35 очень
душно
1005.8 1006.0 +20.5
09 18.07 Ю 2 22 км 3/3 300 м
[]
+26.4 +21.8 76 +34 +38 очень
душно
1004.9 1005.0
12 18.07 В 5 27 км 1/1
[]
+23.9 +21.2 85 +30 +30 очень
душно
1005.2 1005.0
18 18.07 Ю 9 7000 м ?/? +21.8 +21.8 100 +28 +28 душно 1005.4 1005.0 +27.4
21 18.07 Ю 10 23 км н/о +22.4 +19.8 85 +28 +28 душно 1005.4 1005.0
00 19.07 Ю 6 20 км 1/1 200 м
[]
+24.1 +20.4 80 +30 +32 очень
душно
1006.8 1007.0
03 19.07 Ю 1 10 км 9/9 100 м
[]
+24.3 +22.9 92 +32 +34 очень
душно
1007.2 1007.0
06 19.07 Ю 4 11 км в посл. час ливневой дождь 4/4 100 м
[]
+25.1 +23.7 92 +34 +42 очень
душно
1006.2 1006.0 +20.6 12
09 19.07 Ю 2 16 км 8/8 300 м
[]
+26.7 +22.3 77 +35 +36 очень
душно
1004.8 1005.0
12 19.07 В 7 14 км 1/1 100 м
[]
+23.3 +22.1 93 +32 +32 очень
душно
1005.0 1005.0
18 19.07 Ю 5 14 км ?/? +22.6 +21.2 92 +30 +30 очень
душно
1005.2 870.3 +26.8
21 19.07 Ю 8 26 км ?/? +21.8 +19.0 84 +27 +27 душно 1004.2 1004.0

 

Местоположение метеостанции Nanyue (Китай): широта 27.30 долгота 112.70 высота над уровнем моря 1268 м.

В архиве по умолчанию представлена погода в Nanyue за последнюю неделю. Архивные данные за месяц целиком и за предыдущие месяцы, начиная с января 2011 года, Вы можете получить, выбрав интересующий диапазон дат из раскрывающегося списка и нажав кнопку "Ввод!".


*Определитесь, кто Вы:
робот инопланетянин человек

Внимание! Время в таблицах - всемирное. Для получения местного времени необходимо прибавить поправку, которая в Nanyue равна 8 ч.

Смотрите также архив погоды в соседних городах и на ближайших метеорологических станциях:

Погода в Changsha (Китай) (105 км)
Погода в Shaoyang (Китай) (123 км)
Погода в Lingling (Китай) (161 км)
Погода в Chenzhou (Китай) (170 км)
Погода в Yichun (Китай) (175 км)
Погода в Wugang (Китай) (215 км)
Погода в Changde (Китай) (219 км)
Погода в Jian (Китай) (224 км)
Погода в Yueyang (Китай) (234 км)
Погода в Yuanling (Китай) (261 км)

Пояснения к столбцам:

Ветер - указаны скорость ветра в м/с - средняя за 10 мин, порывы в срок и между сроками (в фигурных скобках) и направление, откуда дует ветер: С - северный, СВ - северо-восточный, В - восточный, ЮВ - юго-восточный, Ю - южный, ЮЗ - юго-западный, З - западный, СЗ - северо-западный.
Видимость - горизонтальная дальность видимости в метрах или километрах. При видимости от 1 до 10 км при отсутствии осадков обычно наблюдается дымка, при ухудшении видимости до 1 км и менее - туман. В сухую погоду видимость может ухудшаться дымом, пылью или мглою.
Явления - указаны атмосферные явления, наблюдавшиеся в срок или в последний час перед сроком; фигурными скобками обозначены явления, наблюдавшиеся между сроками (за 1-3 часа до срока); квадратными скобками обозначены град или гололедные отложения с указанием их диаметра в мм.
Облачность - указаны через наклонную черту общая и нижняя облачность в баллах и высота нижней границы облаков в метрах; квадратными скобками обозначены формы облаков: Ci - перистые, Cs - перисто-слоистые, Cc - перисто-кучевые, Ac - высококучевые, As - высокослоистые, Sc - слоисто-кучевые, Ns - слоисто-дождевые, Cu - кучевые, Cb - кучево-дождевые. Подробнее классификацию облаков см. в Атласе облаков (PDF).
T - Температура воздуха - температура, измеренная на высоте 2 м над землей.
Td - Температура точки росы - температура, при понижении до которой содержащийся в воздухе водяной пар достигнет насыщения.
f - Относительная влажность воздуха - влажноcть воздуха, измеренная на высоте 2 м над землей.
Te - Эффективная температура - температура, которую ощущает одетый по сезону человек в тени. Характеристика душности погоды. При расчете учитывается влияние влажности воздуха и скорости ветра на теплоощущения человека.
Tes - Эффективная температура на солнце - температура, которую ощущает человек, с поправкой на солнечный нагрев. Характеристика знойности погоды. Зависит от высоты солнца над горизонтом, облачности и скорости ветра. Ночью, в пасмурную погоду, а также при ветре 12 м/с и более поправка равна нулю.
P - Атмосферное давление - приведенное к уровню моря атмосферное давление.
Po - Атмосферное давление - измеренное на уровне метеостанции атмосферное давление.
Tmin - Минимальная температура - минимум температуры воздуха на высоте 2 м над землей.
Tmax - Максимальная температура - максимум температуры воздуха на высоте 2 м над землей.
R - Количество осадков - Количество выпавших осадков за период времени, мм. При наведении курсора мыши на число - период времени, за который выпало указанное количество осадков.
R24 - Количество осадков - Количество выпавших осадков за 24 часа, мм.
S - Снежный покров - Высота снежного покрова, см. При наведении курсора мыши на число - состояние снежного покрова и степень покрытия местности в баллах.